Location: Unspecified
(48.5639°N, 13.4747°E)
Time: 09:30:13
(UTC+01:00)

ISS - Visible Passes

Search period start: 15 December 2017 00:00
Search period end: 25 December 2017 00:00
Orbit: 402 x 407 km, 51.6° (Epoch: 15 December)

Date Brightness Start Highest point End Pass type
(mag) Time Alt. Az. Time Alt. Az. Time Alt. Az.
15 Dec -1.4 17:56:42 10° W 17:59:21 23° SW 18:02:00 10° SSE visible
16 Dec -2.1 17:04:10 10° WNW 17:07:14 36° SSW 17:10:17 10° SE visible
17 Dec -0.4 17:49:45 10° WSW 17:50:57 12° SW 17:52:09 10° SSW visible
18 Dec -0.7 16:56:28 10° W 16:58:54 19° SW 17:01:20 10° S visible
